THY2LD LTFM-EGLL

Flight info

Callsign THY2LD
Flight time 3h 10m
Altitude 38000
Route TUDBU1D/35L TUDBU Q26 ETUBA DCT NAVOD DCT INVED DCT BEGLA DCT DEXIT DCT INBED DCT BOMBI DCT ADKUV DCT BUB L608 LOGAN
Aircraft B77W/H-SDE1E2E3FGHIJ2J3J4J5M1RWXY/LB1D1

Departure

Time 2026-05-04 12:57
Airport İstanbul Airport (LTFM)

Arrival

Time 2026-05-04 16:07
Airport London Heathrow Airport (EGLL)
Time Latitude Longitude Altitude Speed Heading
2026-05-04 11:58 41.26617 28.73459 181 ft 0 kts 71°
2026-05-04 12:47 41.26614 28.73449 181 ft 4 kts 70°
2026-05-04 12:48 41.26603 28.73417 181 ft 4 kts 59°
2026-05-04 12:48 41.26590 28.73389 181 ft 1 kts 60°
2026-05-04 12:48 41.26588 28.73384 181 ft 0 kts 60°
2026-05-04 12:53 41.26593 28.73388 181 ft 2 kts 38°
2026-05-04 12:53 41.26606 28.73385 181 ft 2 kts 340°
2026-05-04 12:53 41.26616 28.73367 181 ft 3 kts 294°
2026-05-04 12:53 41.26611 28.73341 181 ft 3 kts 251°
2026-05-04 12:54 41.26598 28.73290 172 ft 9 kts 254°
2026-05-04 12:54 41.26588 28.73209 181 ft 9 kts 265°
2026-05-04 12:54 41.26586 28.73126 181 ft 9 kts 269°
2026-05-04 12:54 41.26585 28.73043 181 ft 9 kts 270°
2026-05-04 12:55 41.26585 28.72959 181 ft 9 kts 270°
2026-05-04 12:55 41.26584 28.72884 172 ft 19 kts 269°
2026-05-04 12:55 41.26582 28.72709 182 ft 13 kts 269°
2026-05-04 12:55 41.26584 28.72585 183 ft 14 kts 284°
2026-05-04 12:56 41.26656 28.72516 183 ft 14 kts 352°
2026-05-04 12:56 41.26885 28.72505 182 ft 70 kts 360°
2026-05-04 12:56 41.27661 28.72498 181 ft 150 kts 359°
2026-05-04 12:56 41.28886 28.72500 463 ft 186 kts
2026-05-04 12:57 41.30199 28.72569 1275 ft 196 kts 360°
2026-05-04 12:57 41.31648 28.72551 1866 ft 216 kts 359°
2026-05-04 12:57 41.33215 28.72533 2634 ft 230 kts 359°
2026-05-04 12:57 41.34837 28.72525 3510 ft 236 kts 360°
2026-05-04 12:58 41.36506 28.72529 4334 ft 243 kts 360°
2026-05-04 12:58 41.38185 28.72451 5212 ft 243 kts 349°
2026-05-04 12:58 41.39757 28.71597 5910 ft 248 kts 334°
2026-05-04 12:58 41.41237 28.70384 6657 ft 253 kts 320°
2026-05-04 12:59 41.42440 28.68624 7461 ft 259 kts 312°
2026-05-04 12:59 41.43547 28.66716 8381 ft 260 kts 311°
2026-05-04 12:59 41.44652 28.64779 9230 ft 264 kts 311°
2026-05-04 12:59 41.45777 28.62824 10079 ft 268 kts 311°
2026-05-04 13:00 41.46944 28.60824 10638 ft 283 kts 313°
2026-05-04 13:00 41.48231 28.58660 10870 ft 312 kts 314°
2026-05-04 13:00 41.49645 28.56300 11183 ft 336 kts 314°
2026-05-04 13:00 41.51108 28.53859 11958 ft 346 kts 314°
2026-05-04 13:01 41.52619 28.51340 13019 ft 350 kts 314°
2026-05-04 13:01 41.54157 28.48782 13960 ft 358 kts 314°
2026-05-04 13:01 41.55740 28.46158 14778 ft 368 kts 314°
2026-05-04 13:01 41.57359 28.43478 15659 ft 375 kts 314°
2026-05-04 13:02 41.59016 28.40740 16519 ft 382 kts 314°
2026-05-04 13:02 41.60702 28.37946 17291 ft 392 kts 314°
2026-05-04 13:02 41.62416 28.35095 18198 ft 395 kts 313°
2026-05-04 13:02 41.64160 28.32189 18900 ft 402 kts 313°
2026-05-04 13:03 41.65944 28.29213 19635 ft 412 kts 313°
2026-05-04 13:03 41.67738 28.26206 20423 ft 416 kts 314°
2026-05-04 13:03 41.69575 28.23176 21160 ft 422 kts 314°
2026-05-04 13:03 41.71443 28.20093 21853 ft 429 kts 314°
2026-05-04 13:04 41.73333 28.16956 22555 ft 436 kts 314°
2026-05-04 13:04 41.75240 28.13775 23240 ft 441 kts 315°
2026-05-04 13:04 41.77171 28.10550 23890 ft 447 kts 315°
2026-05-04 13:04 41.79132 28.07270 24024 ft 455 kts 315°
2026-05-04 13:05 41.81108 28.03954 24013 ft 452 kts 315°
2026-05-04 13:05 41.83061 28.00669 24013 ft 450 kts 315°
2026-05-04 13:05 41.85015 27.97383 24212 ft 453 kts 315°
2026-05-04 13:05 41.86986 27.94058 24892 ft 457 kts 315°
2026-05-04 13:06 41.88967 27.90703 25587 ft 460 kts 314°
2026-05-04 13:06 41.90932 27.87367 26207 ft 464 kts 314°
2026-05-04 13:06 41.92941 27.83953 26786 ft 468 kts 314°
2026-05-04 13:06 41.94972 27.80499 27337 ft 473 kts 314°
2026-05-04 13:07 41.97021 27.77011 27836 ft 478 kts 314°
2026-05-04 13:07 41.99088 27.73486 28351 ft 482 kts 314°
2026-05-04 13:07 42.01167 27.69933 28884 ft 484 kts 314°
2026-05-04 13:07 42.03257 27.66360 29377 ft 487 kts 314°
2026-05-04 13:08 42.05357 27.62763 29808 ft 491 kts 314°
2026-05-04 13:08 42.07472 27.59140 30193 ft 495 kts 313°
2026-05-04 13:08 42.09601 27.55489 30667 ft 495 kts 313°
2026-05-04 13:08 42.11717 27.51850 31263 ft 492 kts 313°
2026-05-04 13:09 42.13821 27.48227 31870 ft 490 kts 313°
2026-05-04 13:09 42.15914 27.44621 32384 ft 488 kts 312°
2026-05-04 13:09 42.18002 27.41022 32852 ft 487 kts 312°
2026-05-04 13:09 42.20088 27.37421 33293 ft 487 kts 312°
2026-05-04 13:10 42.22173 27.33820 33738 ft 486 kts 312°
2026-05-04 13:10 42.24253 27.30223 34065 ft 488 kts 311°
2026-05-04 13:10 42.26353 27.26590 34024 ft 492 kts 311°
2026-05-04 13:11 42.30519 27.19357 34017 ft 484 kts 311°
2026-05-04 13:11 42.34647 27.12177 34057 ft 486 kts 311°
2026-05-04 13:11 42.36706 27.08593 34269 ft 489 kts 311°
2026-05-04 13:12 42.38790 27.04961 34713 ft 487 kts 311°
2026-05-04 13:12 42.40856 27.01350 35200 ft 484 kts 311°
2026-05-04 13:12 42.42913 26.97747 35658 ft 482 kts 310°
2026-05-04 13:12 42.44956 26.94168 36096 ft 480 kts 310°
2026-05-04 13:13 42.46998 26.90587 36434 ft 480 kts 310°
2026-05-04 13:13 42.49042 26.87003 36720 ft 481 kts 310°
2026-05-04 13:13 42.51078 26.83425 37174 ft 476 kts 310°
2026-05-04 13:13 42.53082 26.79898 37797 ft 468 kts 310°
2026-05-04 13:14 42.55069 26.76399 38061 ft 469 kts 310°
2026-05-04 13:14 42.59077 26.69335 38034 ft 473 kts 309°
2026-05-04 13:15 42.63062 26.62286 38032 ft 468 kts 309°
2026-05-04 13:15 42.67016 26.55278 38032 ft 466 kts 309°
2026-05-04 13:16 42.70952 26.48282 38045 ft 465 kts 309°
2026-05-04 13:16 42.74887 26.41273 38043 ft 466 kts 309°
2026-05-04 13:17 42.78820 26.34255 38052 ft 467 kts 309°
2026-05-04 13:17 42.82767 26.27192 38058 ft 469 kts 309°
2026-05-04 13:18 42.86718 26.20103 38062 ft 471 kts 309°
2026-05-04 13:18 42.90653 26.13028 38066 ft 472 kts 309°
2026-05-04 13:19 42.94623 26.05875 38066 ft 473 kts 309°
2026-05-04 13:19 42.98586 25.98716 38069 ft 472 kts 309°
2026-05-04 13:20 43.02545 25.91546 38075 ft 472 kts 309°
2026-05-04 13:20 43.06443 25.84465 38073 ft 471 kts 308°
2026-05-04 13:21 43.10350 25.77353 38073 ft 471 kts 309°
2026-05-04 13:21 43.14305 25.70140 38074 ft 470 kts 308°
2026-05-04 13:22 43.18204 25.63012 38075 ft 470 kts 308°
2026-05-04 13:22 43.22119 25.55833 38070 ft 471 kts 308°
2026-05-04 13:23 43.26036 25.48634 38076 ft 470 kts 308°
2026-05-04 13:23 43.29948 25.41428 38076 ft 471 kts 308°
2026-05-04 13:24 43.33855 25.34219 38075 ft 471 kts 308°
2026-05-04 13:24 43.37760 25.26992 38076 ft 471 kts 308°
2026-05-04 13:25 43.43614 25.16119 38076 ft 471 kts 308°
2026-05-04 13:25 43.47487 25.08902 38074 ft 472 kts 308°
2026-05-04 13:26 43.51383 25.01629 38069 ft 472 kts 308°
2026-05-04 13:26 43.55275 24.94341 38064 ft 472 kts 308°
2026-05-04 13:27 43.59163 24.87052 38065 ft 472 kts 308°
2026-05-04 13:27 43.63047 24.79746 38065 ft 472 kts 308°
2026-05-04 13:28 43.66919 24.72440 38063 ft 471 kts 308°
2026-05-04 13:28 43.70787 24.65128 38062 ft 471 kts 307°
2026-05-04 13:29 43.74646 24.57817 38063 ft 470 kts 307°
2026-05-04 13:29 43.78744 24.50776 38073 ft 469 kts 312°
2026-05-04 13:30 43.83020 24.43931 38068 ft 470 kts 312°
2026-05-04 13:30 43.87295 24.37083 38060 ft 470 kts 312°
2026-05-04 13:31 43.91534 24.30227 38054 ft 471 kts 312°
2026-05-04 13:31 43.95793 24.23299 38057 ft 472 kts 311°
2026-05-04 13:32 44.00050 24.16348 38056 ft 473 kts 311°
2026-05-04 13:32 44.04310 24.09379 38057 ft 473 kts 311°
2026-05-04 13:33 44.08563 24.02406 38055 ft 473 kts 311°
2026-05-04 13:33 44.12812 23.95424 38052 ft 473 kts 311°
2026-05-04 13:34 44.17062 23.88426 38045 ft 473 kts 311°
2026-05-04 13:34 44.21302 23.81422 38046 ft 472 kts 311°
2026-05-04 13:35 44.27643 23.70915 38046 ft 471 kts 311°
2026-05-04 13:36 44.31856 23.63917 38047 ft 471 kts 311°
2026-05-04 13:36 44.36061 23.56913 38046 ft 470 kts 311°
2026-05-04 13:37 44.40255 23.49913 38053 ft 469 kts 311°
2026-05-04 13:37 44.44412 23.42950 38055 ft 468 kts 311°
2026-05-04 13:38 44.48581 23.35955 38057 ft 468 kts 311°
2026-05-04 13:38 44.52740 23.28959 38053 ft 467 kts 311°
2026-05-04 13:39 44.56891 23.21961 38055 ft 466 kts 311°
2026-05-04 13:39 44.61022 23.14978 38064 ft 465 kts 311°
2026-05-04 13:40 44.65148 23.07988 38064 ft 464 kts 311°
2026-05-04 13:40 44.68567 23.02181 38065 ft 464 kts 311°
2026-05-04 13:41 44.72666 22.95201 38069 ft 462 kts 311°
2026-05-04 13:41 44.76768 22.88201 38074 ft 462 kts 311°
2026-05-04 13:42 44.82866 22.77766 38072 ft 462 kts 311°
2026-05-04 13:42 44.86945 22.70764 38072 ft 462 kts 311°
2026-05-04 13:43 44.91017 22.63758 38095 ft 461 kts 311°
2026-05-04 13:43 44.95084 22.56740 38079 ft 462 kts 311°
2026-05-04 13:44 44.99145 22.49709 38086 ft 462 kts 311°
2026-05-04 13:44 45.03201 22.42676 38096 ft 461 kts 311°
2026-05-04 13:45 45.07252 22.35643 38092 ft 461 kts 311°
2026-05-04 13:45 45.11286 22.28615 38092 ft 460 kts 311°
2026-05-04 13:46 45.15295 22.21612 38091 ft 460 kts 311°
2026-05-04 13:46 45.19325 22.14557 38084 ft 460 kts 311°
2026-05-04 13:47 45.23348 22.07496 38095 ft 460 kts 311°
2026-05-04 13:47 45.27363 22.00430 38101 ft 460 kts 311°
2026-05-04 13:48 45.31367 21.93359 38106 ft 459 kts 311°
2026-05-04 13:48 45.35400 21.86223 38117 ft 468 kts 311°
2026-05-04 13:49 45.39500 21.78952 38110 ft 473 kts 310°
2026-05-04 13:49 45.43615 21.71637 38103 ft 473 kts 310°
2026-05-04 13:50 45.47730 21.64306 38095 ft 473 kts 310°
2026-05-04 13:50 45.51828 21.56984 38101 ft 471 kts 310°
2026-05-04 13:51 45.55905 21.49673 38097 ft 470 kts 310°
2026-05-04 13:51 45.59973 21.42366 38100 ft 469 kts 310°
2026-05-04 13:52 45.66018 21.31471 38102 ft 468 kts 310°
2026-05-04 13:53 45.70057 21.24172 38102 ft 468 kts 310°
2026-05-04 13:53 45.74081 21.16876 38102 ft 467 kts 310°
2026-05-04 13:54 45.80103 21.05923 38097 ft 466 kts 310°
2026-05-04 13:55 45.86107 20.94957 38105 ft 466 kts 310°
2026-05-04 13:55 45.92102 20.83969 38099 ft 465 kts 310°
2026-05-04 13:56 45.96085 20.76645 38104 ft 465 kts 310°
2026-05-04 13:57 46.02053 20.65633 38100 ft 465 kts 310°
2026-05-04 13:58 46.09965 20.50969 38103 ft 465 kts 309°
2026-05-04 13:58 46.15909 20.39902 38101 ft 464 kts 309°
2026-05-04 13:59 46.19880 20.32527 38100 ft 465 kts 310°
2026-05-04 14:00 46.25800 20.21518 38090 ft 464 kts 309°
2026-05-04 14:00 46.31729 20.10444 38083 ft 464 kts 309°
2026-05-04 14:01 46.35671 20.03048 38088 ft 464 kts 309°
2026-05-04 14:02 46.41573 19.91943 38093 ft 463 kts 309°
2026-05-04 14:02 46.45498 19.84535 38082 ft 463 kts 309°
2026-05-04 14:03 46.49417 19.77120 38081 ft 463 kts 309°
2026-05-04 14:03 46.53329 19.69695 38075 ft 463 kts 309°
2026-05-04 14:04 46.59163 19.58586 38075 ft 463 kts 309°
2026-05-04 14:04 46.63063 19.51136 38072 ft 463 kts 309°
2026-05-04 14:05 46.68901 19.39943 38074 ft 463 kts 309°
2026-05-04 14:06 46.72792 19.32460 38075 ft 463 kts 308°
2026-05-04 14:06 46.76679 19.24967 38073 ft 463 kts 308°
2026-05-04 14:07 46.80557 19.17466 38073 ft 463 kts 308°
2026-05-04 14:07 46.84429 19.09956 38076 ft 463 kts 308°
2026-05-04 14:08 46.88298 19.02434 38075 ft 463 kts 308°
2026-05-04 14:08 46.92165 18.94898 38074 ft 463 kts 308°
2026-05-04 14:09 46.97950 18.83584 38074 ft 462 kts 308°
2026-05-04 14:10 47.03714 18.72262 38064 ft 462 kts 308°
2026-05-04 14:10 47.07546 18.64709 38066 ft 461 kts 308°
2026-05-04 14:11 47.11349 18.57194 38064 ft 461 kts 307°
2026-05-04 14:11 47.17076 18.45834 38061 ft 461 kts 307°
2026-05-04 14:12 47.20891 18.38246 38054 ft 461 kts 307°
2026-05-04 14:13 47.26600 18.26845 38054 ft 461 kts 307°
2026-05-04 14:13 47.30401 18.19229 38045 ft 462 kts 307°
2026-05-04 14:14 47.34191 18.11616 38036 ft 462 kts 307°
2026-05-04 14:14 47.39896 18.00110 38033 ft 462 kts 307°
2026-05-04 14:15 47.47442 17.84822 38021 ft 462 kts 306°
2026-05-04 14:16 47.53102 17.73298 38017 ft 461 kts 306°
2026-05-04 14:17 47.58743 17.61772 38017 ft 460 kts 306°
2026-05-04 14:18 47.64363 17.50231 38018 ft 460 kts 306°
2026-05-04 14:19 47.71844 17.34796 38022 ft 461 kts 306°
2026-05-04 14:19 47.75579 17.27055 38016 ft 461 kts 306°
2026-05-04 14:20 47.79289 17.19346 38009 ft 461 kts 306°
2026-05-04 14:20 47.82912 17.11480 38001 ft 461 kts 301°
2026-05-04 14:21 47.86950 16.98486 37994 ft 461 kts 294°
2026-05-04 14:21 47.89462 16.89711 37989 ft 460 kts 294°
2026-05-04 14:22 47.91990 16.80942 37981 ft 460 kts 294°
2026-05-04 14:22 47.94523 16.72179 37982 ft 459 kts 294°
2026-05-04 14:23 47.98313 16.59031 37981 ft 460 kts 293°
2026-05-04 14:24 48.00829 16.50263 37962 ft 459 kts 293°
2026-05-04 14:24 48.03319 16.41555 37961 ft 459 kts 293°
2026-05-04 14:25 48.05818 16.32788 37979 ft 459 kts 293°
2026-05-04 14:25 48.09553 16.19624 37977 ft 458 kts 293°
2026-05-04 14:26 48.12036 16.10828 37978 ft 458 kts 292°
2026-05-04 14:26 48.14510 16.02027 37980 ft 459 kts 292°
2026-05-04 14:27 48.16980 15.93211 37957 ft 459 kts 292°
2026-05-04 14:27 48.19444 15.84389 37978 ft 459 kts 292°
2026-05-04 14:28 48.21885 15.75607 37981 ft 459 kts 292°
2026-05-04 14:28 48.23942 15.68187 37962 ft 459 kts 292°
2026-05-04 14:29 48.28803 15.50560 37978 ft 458 kts 292°
2026-05-04 14:30 48.31224 15.41730 37979 ft 458 kts 292°
2026-05-04 14:31 48.34843 15.28468 37960 ft 457 kts 291°
2026-05-04 14:32 48.39634 15.10791 37970 ft 455 kts 291°
2026-05-04 14:32 48.42013 15.01965 37962 ft 455 kts 291°
2026-05-04 14:33 48.44382 14.93153 37960 ft 454 kts 291°
2026-05-04 14:33 48.46743 14.84329 37958 ft 454 kts 291°
2026-05-04 14:34 48.49095 14.75498 37949 ft 453 kts 291°
2026-05-04 14:34 48.51437 14.66681 37953 ft 453 kts 291°
2026-05-04 14:35 48.53771 14.57859 37954 ft 452 kts 290°
2026-05-04 14:35 48.56095 14.49040 37950 ft 452 kts 290°
2026-05-04 14:36 48.58413 14.40212 37945 ft 452 kts 290°
2026-05-04 14:36 48.60723 14.31379 37950 ft 452 kts 290°
2026-05-04 14:37 48.63024 14.22544 37948 ft 451 kts 290°
2026-05-04 14:37 48.65318 14.13705 37943 ft 452 kts 290°
2026-05-04 14:38 48.67604 14.04867 37949 ft 451 kts 290°
2026-05-04 14:38 48.69868 13.96066 37945 ft 451 kts 290°
2026-05-04 14:39 48.72142 13.87201 37950 ft 451 kts 290°
2026-05-04 14:39 48.74412 13.78321 37929 ft 452 kts 289°
2026-05-04 14:40 48.77769 13.64959 37932 ft 452 kts 288°
2026-05-04 14:40 48.79905 13.55999 37938 ft 452 kts 288°
2026-05-04 14:41 48.82027 13.47022 37934 ft 452 kts 288°
2026-05-04 14:42 48.86280 13.29058 37933 ft 452 kts 288°
2026-05-04 14:42 48.88402 13.20058 37939 ft 452 kts 288°
2026-05-04 14:43 48.90505 13.11111 37943 ft 452 kts 288°
2026-05-04 14:43 48.92610 13.02096 37949 ft 453 kts 288°
2026-05-04 14:44 48.94712 12.93063 37948 ft 453 kts 288°
2026-05-04 14:44 48.96812 12.84018 37956 ft 453 kts 287°
2026-05-04 14:45 48.98904 12.74952 37955 ft 454 kts 287°
2026-05-04 14:45 49.00992 12.65863 37954 ft 454 kts 287°
2026-05-04 14:46 49.03073 12.56787 37953 ft 454 kts 287°
2026-05-04 14:46 49.05128 12.47753 37947 ft 453 kts 287°
2026-05-04 14:47 49.07191 12.38664 37948 ft 453 kts 287°
2026-05-04 14:47 49.09246 12.29574 37959 ft 453 kts 287°
2026-05-04 14:48 49.11294 12.20478 37944 ft 453 kts 287°
2026-05-04 14:48 49.13334 12.11374 37959 ft 453 kts 287°
2026-05-04 14:49 49.15367 12.02254 37966 ft 453 kts 287°
2026-05-04 14:49 49.17390 11.93144 37961 ft 453 kts 286°
2026-05-04 14:50 49.19410 11.84008 37963 ft 453 kts 286°
2026-05-04 14:50 49.21409 11.74926 37972 ft 454 kts 286°
2026-05-04 14:51 49.23420 11.65753 37967 ft 454 kts 286°
2026-05-04 14:51 49.25420 11.56594 37950 ft 454 kts 286°
2026-05-04 14:52 49.27402 11.47473 37964 ft 453 kts 286°
2026-05-04 14:52 49.29383 11.38309 37977 ft 453 kts 286°
2026-05-04 14:53 49.31360 11.29131 37969 ft 453 kts 285°
2026-05-04 14:53 49.33318 11.19999 37975 ft 454 kts 285°
2026-05-04 14:54 49.35278 11.10808 37979 ft 454 kts 285°
2026-05-04 14:54 49.37239 11.01589 37962 ft 454 kts 285°
2026-05-04 14:55 49.39335 10.92437 37977 ft 455 kts 291°
2026-05-04 14:55 49.42133 10.83723 37979 ft 456 kts 294°
2026-05-04 14:56 49.45001 10.75025 37985 ft 456 kts 294°
2026-05-04 14:56 49.47838 10.66317 37981 ft 456 kts 293°
2026-05-04 14:57 49.50656 10.57576 37984 ft 456 kts 293°
2026-05-04 14:57 49.53445 10.48818 38000 ft 455 kts 292°
2026-05-04 14:58 49.56076 10.39949 38000 ft 455 kts 291°
2026-05-04 14:58 49.58655 10.31042 38002 ft 455 kts 291°
2026-05-04 14:59 49.61245 10.22126 38002 ft 455 kts 291°
2026-05-04 15:00 49.65120 10.08824 38002 ft 455 kts 291°
2026-05-04 15:00 49.67708 9.99910 37999 ft 455 kts 291°
2026-05-04 15:01 49.71575 9.86529 37990 ft 455 kts 290°
2026-05-04 15:01 49.74145 9.77596 37993 ft 454 kts 290°
2026-05-04 15:02 49.76704 9.68660 37990 ft 455 kts 290°
2026-05-04 15:02 49.79258 9.59709 37978 ft 455 kts 290°
2026-05-04 15:03 49.81804 9.50757 37981 ft 454 kts 290°
2026-05-04 15:03 49.84346 9.41784 37985 ft 455 kts 290°
2026-05-04 15:04 49.86885 9.32790 37969 ft 456 kts 290°
2026-05-04 15:04 49.89417 9.23786 37980 ft 456 kts 290°
2026-05-04 15:05 49.91943 9.14766 37978 ft 456 kts 290°
2026-05-04 15:05 49.94462 9.05740 37970 ft 455 kts 290°
2026-05-04 15:06 49.96974 8.96702 37962 ft 456 kts 290°
2026-05-04 15:07 50.00732 8.83115 37957 ft 456 kts 289°
2026-05-04 15:07 50.03229 8.74040 37964 ft 456 kts 289°
2026-05-04 15:08 50.05717 8.64971 37962 ft 456 kts 289°
2026-05-04 15:08 50.08196 8.55903 37965 ft 455 kts 289°
2026-05-04 15:09 50.10663 8.46833 37978 ft 454 kts 289°
2026-05-04 15:09 50.13121 8.37765 37959 ft 454 kts 289°
2026-05-04 15:10 50.16385 8.25673 37982 ft 454 kts 289°
2026-05-04 15:11 50.20443 8.10543 37987 ft 455 kts 289°
2026-05-04 15:11 50.22479 8.02910 37990 ft 454 kts 289°
2026-05-04 15:12 50.24888 7.93846 37997 ft 454 kts 288°
2026-05-04 15:12 50.27311 7.84704 37999 ft 455 kts 288°
2026-05-04 15:13 50.29726 7.75554 38002 ft 455 kts 288°
2026-05-04 15:13 50.32130 7.66404 38009 ft 455 kts 288°
2026-05-04 15:14 50.34529 7.57232 38011 ft 456 kts 288°
2026-05-04 15:14 50.36923 7.48054 38007 ft 456 kts 288°
2026-05-04 15:15 50.39314 7.38848 38003 ft 457 kts 288°
2026-05-04 15:15 50.41703 7.29611 37997 ft 457 kts 288°
2026-05-04 15:16 50.45270 7.15746 37997 ft 457 kts 288°
2026-05-04 15:17 50.48818 7.01870 38003 ft 457 kts 288°
2026-05-04 15:17 50.52356 6.87949 37997 ft 457 kts 288°
2026-05-04 15:18 50.54703 6.78654 37988 ft 458 kts 287°
2026-05-04 15:19 50.58220 6.64674 37990 ft 459 kts 287°
2026-05-04 15:19 50.61710 6.50712 37988 ft 459 kts 287°
2026-05-04 15:20 50.64039 6.41342 37991 ft 459 kts 287°
2026-05-04 15:20 50.66365 6.31949 37994 ft 460 kts 287°
2026-05-04 15:21 50.68687 6.22544 37989 ft 460 kts 287°
2026-05-04 15:22 50.72151 6.08418 37992 ft 460 kts 287°
2026-05-04 15:22 50.75603 5.94243 37982 ft 462 kts 287°
2026-05-04 15:23 50.77900 5.84761 37986 ft 462 kts 287°
2026-05-04 15:23 50.80193 5.75264 37980 ft 463 kts 287°
2026-05-04 15:24 50.84745 5.56270 37978 ft 463 kts 287°
2026-05-04 15:25 50.87018 5.46727 37977 ft 463 kts 287°
2026-05-04 15:26 50.90407 5.32428 37979 ft 462 kts 287°
2026-05-04 15:26 50.93776 5.18109 37982 ft 463 kts 287°
2026-05-04 15:27 50.97136 5.03730 37977 ft 463 kts 286°
2026-05-04 15:28 51.00476 4.89342 37979 ft 463 kts 286°
2026-05-04 15:29 51.03797 4.74941 37978 ft 463 kts 286°
2026-05-04 15:30 51.11505 4.41130 37969 ft 466 kts 286°
2026-05-04 15:31 51.14789 4.26560 37957 ft 466 kts 286°
2026-05-04 15:32 51.20206 4.02306 37977 ft 466 kts 286°
2026-05-04 15:34 51.25592 3.77898 37979 ft 467 kts 286°
2026-05-04 15:34 51.28815 3.63155 37981 ft 468 kts 285°
2026-05-04 15:35 51.32017 3.48402 37992 ft 469 kts 285°
2026-05-04 15:36 51.35213 3.33619 37989 ft 469 kts 287°
2026-05-04 15:36 51.37543 3.23856 37994 ft 470 kts 288°
2026-05-04 15:37 51.39902 3.14101 38000 ft 470 kts 287°
2026-05-04 15:37 51.42212 3.04304 38000 ft 470 kts 287°
2026-05-04 15:38 51.44507 2.94490 38000 ft 471 kts 287°
2026-05-04 15:38 51.46800 2.84654 38000 ft 471 kts 287°
2026-05-04 15:39 51.49081 2.74842 37632 ft 470 kts 287°
2026-05-04 15:39 51.51359 2.64978 36309 ft 466 kts 287°
2026-05-04 15:40 51.52464 2.60192 35792 ft 452 kts 287°
2026-05-04 15:40 51.53549 2.55479 35289 ft 448 kts 286°
2026-05-04 15:40 51.54621 2.50797 34788 ft 445 kts 286°
2026-05-04 15:40 51.55682 2.46148 34286 ft 441 kts 286°
2026-05-04 15:41 51.56716 2.41594 33804 ft 437 kts 286°
2026-05-04 15:41 51.57751 2.37021 33313 ft 433 kts 285°
2026-05-04 15:41 51.58779 2.32480 32825 ft 430 kts 285°
2026-05-04 15:41 51.59803 2.27983 32338 ft 427 kts 285°
2026-05-04 15:42 51.60820 2.23519 31857 ft 423 kts 285°
2026-05-04 15:42 51.61829 2.19085 31377 ft 420 kts 285°
2026-05-04 15:42 51.62813 2.14744 30908 ft 417 kts 285°
2026-05-04 15:42 51.63800 2.10376 30434 ft 414 kts 285°
2026-05-04 15:43 51.64778 2.06041 29969 ft 410 kts 285°
2026-05-04 15:43 51.65749 2.01739 29500 ft 407 kts 285°
2026-05-04 15:43 51.66712 1.97470 29023 ft 404 kts 285°
2026-05-04 15:43 51.67666 1.93227 28549 ft 401 kts 285°
2026-05-04 15:44 51.68612 1.89009 28078 ft 399 kts 285°
2026-05-04 15:44 51.69549 1.84824 27610 ft 396 kts 285°
2026-05-04 15:44 51.70480 1.80660 27149 ft 394 kts 285°
2026-05-04 15:44 51.71402 1.76520 26682 ft 391 kts 285°
2026-05-04 15:45 51.72317 1.72407 26230 ft 388 kts 285°
2026-05-04 15:45 51.73224 1.68322 25775 ft 386 kts 286°
2026-05-04 15:45 51.74125 1.64260 25320 ft 382 kts 285°
2026-05-04 15:45 51.74730 1.60171 24821 ft 372 kts 270°
2026-05-04 15:46 51.74562 1.56060 24289 ft 365 kts 261°
2026-05-04 15:46 51.74254 1.51990 23741 ft 366 kts 261°
2026-05-04 15:46 51.73964 1.47906 23191 ft 367 kts 262°
2026-05-04 15:46 51.73681 1.43799 22632 ft 368 kts 262°
2026-05-04 15:47 51.73406 1.39689 22075 ft 369 kts 262°
2026-05-04 15:47 51.73132 1.35568 21513 ft 370 kts 262°
2026-05-04 15:47 51.72856 1.31444 20945 ft 365 kts 263°
2026-05-04 15:47 51.72592 1.27447 20381 ft 352 kts 263°
2026-05-04 15:48 51.72331 1.23525 19865 ft 352 kts 263°
2026-05-04 15:48 51.72067 1.19589 19339 ft 354 kts 263°
2026-05-04 15:48 51.71530 1.11651 18262 ft 358 kts 263°
2026-05-04 15:49 51.71264 1.07755 17711 ft 348 kts 263°
2026-05-04 15:49 51.71000 1.03892 17203 ft 347 kts 263°
2026-05-04 15:49 51.70732 1.00012 16680 ft 349 kts 263°
2026-05-04 15:49 51.70462 0.96105 16150 ft 351 kts 263°
2026-05-04 15:50 51.70190 0.92193 15686 ft 349 kts 263°
2026-05-04 15:50 51.69927 0.88395 15235 ft 333 kts 263°
2026-05-04 15:50 51.69671 0.84721 14839 ft 329 kts 263°
2026-05-04 15:50 51.69411 0.81013 14427 ft 328 kts 263°
2026-05-04 15:51 51.69155 0.77353 14019 ft 328 kts 263°
2026-05-04 15:51 51.68901 0.73745 13615 ft 328 kts 263°
2026-05-04 15:51 51.68641 0.70093 13202 ft 328 kts 263°
2026-05-04 15:51 51.68380 0.66436 12791 ft 328 kts 263°
2026-05-04 15:52 51.68121 0.62818 12366 ft 319 kts 263°
2026-05-04 15:52 51.67867 0.59291 11981 ft 317 kts 263°
2026-05-04 15:52 51.67613 0.55770 11586 ft 317 kts 263°
2026-05-04 15:52 51.67357 0.52245 11226 ft 316 kts 263°
2026-05-04 15:53 51.67191 0.49955 10929 ft 305 kts 263°
2026-05-04 15:53 51.66951 0.46670 10541 ft 285 kts 263°
2026-05-04 15:53 51.66725 0.43597 10182 ft 269 kts 263°
2026-05-04 15:53 51.66504 0.40606 9871 ft 270 kts 263°
2026-05-04 15:54 51.66281 0.37584 9545 ft 272 kts 263°
2026-05-04 15:54 51.66057 0.34560 9196 ft 272 kts 263°
2026-05-04 15:54 51.65832 0.31535 8855 ft 272 kts 263°
2026-05-04 15:54 51.65606 0.28517 8514 ft 271 kts 263°
2026-05-04 15:55 51.65380 0.25495 8174 ft 272 kts 263°
2026-05-04 15:55 51.65155 0.22479 7840 ft 271 kts 263°
2026-05-04 15:55 51.64930 0.19520 7491 ft 259 kts 263°
2026-05-04 15:55 51.64720 0.16733 7151 ft 243 kts 263°
2026-05-04 15:56 51.64575 0.14098 7054 ft 232 kts 270°
2026-05-04 15:56 51.64644 0.11518 7049 ft 234 kts 274°
2026-05-04 15:56 51.64758 0.08863 7042 ft 240 kts 274°
2026-05-04 15:56 51.64870 0.06162 7039 ft 242 kts 273°
2026-05-04 15:57 51.64974 0.03466 7027 ft 240 kts 273°
2026-05-04 15:57 51.65072 0.00797 7026 ft 238 kts 273°
2026-05-04 15:57 51.65167 -0.01866 7017 ft 238 kts 273°
2026-05-04 15:57 51.65258 -0.04536 7023 ft 241 kts 273°
2026-05-04 15:58 51.65347 -0.07253 7035 ft 245 kts 273°
2026-05-04 15:58 51.65420 -0.09553 7036 ft 245 kts 273°
2026-05-04 15:58 51.65509 -0.12291 7029 ft 245 kts 273°
2026-05-04 15:58 51.65577 -0.15029 7018 ft 241 kts 266°
2026-05-04 15:59 51.65062 -0.17534 7029 ft 239 kts 232°
2026-05-04 15:59 51.63772 -0.19212 6687 ft 244 kts 202°
2026-05-04 15:59 51.62186 -0.20117 6498 ft 246 kts 199°
2026-05-04 15:59 51.60557 -0.21041 6281 ft 250 kts 199°
2026-05-04 16:00 51.58911 -0.21702 6055 ft 244 kts 179°
2026-05-04 16:00 51.57304 -0.20937 5766 ft 243 kts 144°
2026-05-04 16:00 51.56213 -0.18911 5459 ft 241 kts 114°
2026-05-04 16:00 51.55477 -0.16562 5134 ft 236 kts 126°
2026-05-04 16:01 51.54494 -0.14489 4839 ft 232 kts 122°
2026-05-04 16:01 51.53541 -0.12382 4516 ft 235 kts 130°
2026-05-04 16:01 51.52301 -0.10651 4206 ft 235 kts 146°
2026-05-04 16:01 51.50841 -0.09637 4136 ft 222 kts 163°
2026-05-04 16:02 51.49407 -0.08988 4085 ft 205 kts 168°
2026-05-04 16:02 51.48051 -0.09155 4027 ft 200 kts 208°
2026-05-04 16:02 51.46742 -0.12817 3792 ft 195 kts 265°
2026-05-04 16:03 51.46622 -0.14987 3528 ft 195 kts 268°
2026-05-04 16:03 51.46580 -0.17149 3262 ft 192 kts 271°
2026-05-04 16:03 51.46567 -0.19277 3002 ft 189 kts 271°
2026-05-04 16:03 51.46563 -0.21377 2749 ft 187 kts 271°
2026-05-04 16:04 51.46556 -0.23441 2500 ft 182 kts 271°
2026-05-04 16:04 51.46544 -0.27286 2054 ft 170 kts 272°
2026-05-04 16:04 51.46538 -0.29194 1828 ft 170 kts 272°
2026-05-04 16:05 51.46531 -0.31103 1626 ft 167 kts 272°
2026-05-04 16:05 51.46526 -0.32902 1376 ft 157 kts 272°
2026-05-04 16:05 51.46515 -0.36146 998 ft 141 kts 272°
2026-05-04 16:06 51.46512 -0.37726 819 ft 143 kts 272°
2026-05-04 16:06 51.46497 -0.41951 309 ft 139 kts 270°
2026-05-04 16:07 51.46500 -0.44024 94 ft 138 kts 269°
2026-05-04 16:07 51.46527 -0.46670 98 ft 32 kts 290°
2026-05-04 16:08 51.46671 -0.46858 91 ft 29 kts 357°
2026-05-04 16:08 51.46747 -0.46004 93 ft 13 kts 87°
2026-05-04 16:09 51.46754 -0.45707 91 ft 13 kts 89°
2026-05-04 16:09 51.46758 -0.45405 92 ft 14 kts 90°
2026-05-04 16:10 51.46752 -0.45099 93 ft 14 kts 92°
2026-05-04 16:11 51.46832 -0.44883 91 ft 7 kts
2026-05-04 16:11 51.46840 -0.44883 91 ft 0 kts